Regional Weather Roundup
Issued by NWS

Home | Current Version | Previous Version | Graphics & Text | Print | Product List | Glossary On
Versions: 1 2 3 4 5 6 7 8 9 10 11 12 13 14 15 16 17 18 19 20 21 22 23 24 25 26 27 28 29 30 31 32 33 34 35 36 37 38 39 40 41 42 43 44 45 46 47 48 49 50
000
ASUS43 KOAX 041710
RWRNE

WEATHER ROUNDUP FOR NEBRASKA
NATIONAL WEATHER SERVICE OMAHA NE
1200 PM CDT MON MAY 04 2015

NOTES: SATELLITE DATA IS BEING USED TO AUGMENT CLOUD COVER ABOVE
       12000 FEET.
       "FAIR" INDICATES FEW OR NO CLOUDS BELOW 12,000 FEET WITH NO
       SIGNIFICANT WEATHER AND/OR OBSTRUCTIONS TO VISIBILITY.

  * THESE STATIONS DO NOT REPORT WEATHER SUCH AS RAIN...SNOW OR FOG.

NEZ001>004-019>022-054>056-041800-
NEBRASKA PANHANDLE

CITY           SKY/WX    TMP DP  RH WIND       PRES   REMARKS
SCOTTSBLUFF    CLOUDY    53  35  50 SE10      30.17R
ALLIANCE       CLOUDY    53  32  44 E9        30.18R
CHADRON        LGT RAIN  50  42  74 NE7       30.20R
KIMBALL        RAIN      46  42  84 SE5       30.16S
SIDNEY         CLOUDY    56  37  49 E12       30.17S
$$

NEZ057>060-069>072-079>082-041800-
SOUTHWEST NEBRASKA

CITY           SKY/WX    TMP DP  RH WIND       PRES   REMARKS
NORTH PLATTE   CLOUDY    59  32  36 NE14      30.13S
IMPERIAL       CLOUDY    57  37  47 NE10      30.13R
LEXINGTON      LGT RAIN  56  40  54 NE17G23   30.11F
MCCOOK         CLOUDY    57  43  59 E15       30.11R
OGALLALA       CLOUDY    56  32  40 E14       30.15S
$$

NEZ005>010-023>029-035>040-094-041800-
NORTH CENTRAL NEBRASKA

CITY           SKY/WX    TMP DP  RH WIND       PRES   REMARKS
VALENTINE      CLOUDY    61  23  23 E16       30.20R
AINSWORTH      CLOUDY    60  26  27 NE15G21   30.19R
BROKEN BOW     CLOUDY    64  29  26 NE17G24   30.12F
O`NEILL        CLOUDY    64  30  28 NE17      30.17S
ORD            CLOUDY    63  28  26 NE13      30.12S
THEDFORD       CLOUDY    62  28  27 E16       30.18F
$$

NEZ041-046>049-061>064-073>077-083>087-041800-
SOUTH CENTRAL NEBRASKA

CITY           SKY/WX    TMP DP  RH WIND       PRES   REMARKS
GRAND ISLAND   LGT RAIN  50  48  93 N14       30.12F FOG
AURORA         CLOUDY    58  46  63 NE10      30.10S
HASTINGS       CLOUDY    57  48  72 NE16      30.08S
HEBRON         CLOUDY    66  55  66 E12       30.05F
HOLDREGE       CLOUDY    58  43  57 NE18      30.08S
KEARNEY *      CLOUDY    59  37  44 NE21      30.10F
YORK           CLOUDY    59  48  67 E15       30.08F
$$

NEZ011>018-030>034-042>045-041800-
NORTHEAST NEBRASKA

CITY           SKY/WX    TMP DP  RH WIND       PRES   REMARKS
NORFOLK        PTSUNNY   64  39  39 NE13      30.11F
ALBION         CLOUDY    63  37  37 NE15      30.13R
BLAIR          CLOUDY    62  49  63 NE13G22   30.07F
COLUMBUS *     CLOUDY    61  43  51 E14       30.13R
FREMONT        CLOUDY    64  46  53 NE8G17    30.09R
TEKAMAH        CLOUDY    68  45  43 NE21      30.08F
WAYNE          CLOUDY    67  37  33 NE20      30.13F
$$

NEZ050>053-065>068-078-088>093-041800-
SOUTHEAST NEBRASKA

CITY           SKY/WX    TMP DP  RH WIND       PRES   REMARKS
LINCOLN        CLOUDY    61  52  72 N8        30.10R
OMAHA EPPLEY   CLOUDY    66  53  63 NE9       30.07F
BEATRICE       CLOUDY    65  58  77 E7        30.07R
FALLS CITY     PTSUNNY   73  61  65 E6        30.04F
NEBRASKA CITY  CLOUDY    61  59  94 NE18      30.03F
PLATTSMOUTH    CLOUDY    63  55  75 NE14      30.07F
$$

NEZ044-045-051>053-067-041800-
OMAHA AREA

CITY           SKY/WX    TMP DP  RH WIND       PRES   REMARKS
OMAHA EPPLEY   CLOUDY    66  53  63 NE9       30.07F
BLAIR          CLOUDY    62  49  63 NE13G22   30.07F
FREMONT        CLOUDY    64  46  53 NE8G17    30.09R
MILLARD        CLOUDY    64  52  64 E10G18    30.07S
OFFUTT AFB     CLOUDY    66  56  69 E12       30.07R
PLATTSMOUTH    CLOUDY    63  55  75 NE14      30.07F
$$


USA.gov is the U.S. government's official web portal to all federal, state and local government web resources and services.